User: anonymous   Login
Location: Unspecified
(0.0000°N, 0.0000°E)
Time: 16:49:38
(UTC+00:00)
Language:

AUBIESAT-1 - Orbit

View from above orbital plane
View from above orbital plane
View from above satellite
View from above satellite

Ground track
Ground track

The orbit data is extracted from the following two-line orbital elements,

1 37854U 11061E   16179.09377032  .00002079  00000-0  12230-3 0  9990
2 37854 101.7023 226.6911 0172883  44.6099 316.8876 15.02276529253582
Epoch (UTC): 27 June 2016 02:15:01
Eccentricity: 0.0172883
inclination: 101.7023°
perigee height: 440 km
apogee height: 680 km
right ascension of ascending node: 226.6911°
argument of perigee: 44.6099°
revolutions per day: 15.02276529
mean anomaly at epoch: 316.8876°
orbit number at epoch: 25358

The dashed part of the orbit path shows where the satellite is in the earth's shadow,  

DLR